Flag for Switzerland Weather past 2 weeks in Ilanz, Graubünden, Switzerland

Now
39 °F

Fog.


Feels Like: 30 °F
Forecast: 24 / 44 °F
Wind: 16 mph from Northeast

Location: Chur-Ems

Current Time: Apr 1, 2015 at 12:00:00 PM

Latest Report: Apr 1, 2015 at 11:00 AM


Visibility: 4 mi

Pressure: 30.20 "Hg

Humidity: 66%

Dew point: 29 °F

Location of IlanzLocation

Historic Weather in Ilanz — Graph

°F

Ilanz temperature yesterday

Maximum temperature yesterday: 63 °F (at 3:00 PM)
Minimum temperature yesterday: 38 °F (at 8:00 AM)
Average temperature yesterday: 48 °F

Past Weeks' High & Low Weather Summary

 TemperatureHumidityPressure
High65 °F (Mar 18, 2:40 PM)96% (Mar 30, 1:00 AM)30.34 "Hg (Mar 30, 1:00 AM)
Low32 °F (Mar 23, 6:00 AM)15% (Mar 28, 2:00 PM)29.50 "Hg (Mar 25, 1:00 PM)
Average47 °F66%30.00 "Hg
* Reported Mar 17 9:00 AM — Apr 1 10:00 AM, Ilanz, Weather by CustomWeather, © 2015

Note: Actual official high and low records may vary slightly from our data, if they occured in-between our weather recording intervals... More about our weather records

Advertising

Ilanz weather history for previous 24 hours

 ConditionsComfort  
Time TempWeatherWind HumidityBarometerVisibility
10:00 AM
Wed, Apr 1
41 °FQuite cool.5 mph61%30.17 "HgN/A
9:00 AM38 °FChilly.6 mph85%30.16 "HgN/A
8:00 AM37 °FLight rain. Overcast.3 mph88%30.15 "Hg2 mi
7:00 AM37 °FChilly.3 mph90%30.12 "HgN/A
6:00 AM37 °FChilly.2 mph91%30.13 "HgN/A
4:00 AM40 °FQuite cool.2 mph79%30.09 "HgN/A
3:00 AM42 °FQuite cool.5 mph74%30.09 "HgN/A
2:00 AM41 °FHeavy rain. Overcast.2 mph80%30.11 "Hg3 mi
1:00 AM43 °FQuite cool.3 mph83%30.07 "HgN/A
12:00 AM43 °FQuite cool.1 mph84%30.06 "HgN/A
11:00 PM
Tue, Mar 31
45 °FRain. Overcast.12 mph71%30.04 "Hg3 mi
10:00 PM47 °FCool.3 mph68%29.98 "HgN/A
9:00 PM48 °FCool.6 mph69%29.95 "HgN/A
8:00 PM47 °FRain. Overcast.17 mph76%29.94 "Hg3 mi
7:00 PM49 °FCool.15 mph81%29.88 "HgN/A
6:00 PM55 °FRefreshingly cool.16 mph54%29.77 "HgN/A
5:00 PM58 °FOvercast.17 mph45%29.73 "Hg12 mi
4:00 PM61 °FRefreshingly cool.20 mph41%29.70 "HgN/A
3:00 PM63 °FMild.13 mph37%29.70 "HgN/A
2:00 PM62 °FOvercast.9 mph46%29.70 "Hg19 mi
1:00 PM54 °FCool.2 mph63%29.75 "HgN/A
12:00 PM56 °FCool.5 mph63%29.76 "HgN/A
Weather by CustomWeather, © 2015

See weather overviewHow to use our weather pages